Time,TemperatureF,DewpointF,PressureIn,WindDirection,WindDirectionDegrees,WindSpeedMPH,WindSpeedGustMPH,Humidity,HourlyPrecipIn,Conditions,Clouds,dailyrainin,SoftwareType,DateUTC
2013-09-22 00:06:00,69.8,67.0,29.74,SW,231,8.0,12.0,89,0.00,,,0.00,weatherlink.com 1.10,2013-09-22 04:06:00,
2013-09-22 00:21:00,69.5,66.0,29.74,ESE,117,2.0,13.0,89,0.00,,,0.00,weatherlink.com 1.10,2013-09-22 04:21:00,
2013-09-22 00:36:00,69.0,66.0,29.73,SSW,205,3.0,11.0,90,0.00,,,0.00,weatherlink.com 1.10,2013-09-22 04:36:00,
2013-09-22 00:51:00,68.8,66.0,29.73,SW,225,6.0,12.0,91,0.00,,,0.00,weatherlink.com 1.10,2013-09-22 04:51:00,
2013-09-22 01:06:00,68.8,66.0,29.72,WSW,238,2.0,9.0,91,0.00,,,0.00,weatherlink.com 1.10,2013-09-22 05:06:00,
2013-09-22 01:21:00,68.8,66.0,29.72,South,172,1.0,10.0,91,0.00,,,0.00,weatherlink.com 1.10,2013-09-22 05:21:00,
2013-09-22 01:36:00,69.0,66.0,29.71,West,259,5.0,10.0,91,0.00,,,0.00,weatherlink.com 1.10,2013-09-22 05:36:00,
2013-09-22 01:51:00,69.5,66.0,29.70,SSE,151,1.0,13.0,89,0.00,,,0.00,weatherlink.com 1.10,2013-09-22 05:51:00,
2013-09-22 02:07:00,69.8,66.0,29.69,SSW,207,3.0,14.0,88,0.00,,,0.00,weatherlink.com 1.10,2013-09-22 06:07:00,
2013-09-22 02:21:00,69.8,67.0,29.68,SW,219,6.0,15.0,89,0.00,,,0.00,weatherlink.com 1.10,2013-09-22 06:21:00,
2013-09-22 02:36:00,70.1,67.0,29.68,SW,227,10.0,13.0,89,0.00,,,0.00,weatherlink.com 1.10,2013-09-22 06:36:00,
2013-09-22 02:52:00,70.1,67.0,29.67,South,189,3.0,15.0,89,0.00,,,0.00,weatherlink.com 1.10,2013-09-22 06:52:00,
2013-09-22 03:07:00,69.7,67.0,29.66,SW,222,5.0,13.0,90,0.00,,,0.00,weatherlink.com 1.10,2013-09-22 07:07:00,
2013-09-22 03:22:00,69.4,66.0,29.66,East,80,1.0,11.0,90,0.00,,,0.00,weatherlink.com 1.10,2013-09-22 07:22:00,
2013-09-22 03:37:00,69.4,67.0,29.66,South,177,2.0,12.0,91,0.00,,,0.00,weatherlink.com 1.10,2013-09-22 07:37:00,
2013-09-22 03:52:00,69.6,67.0,29.66,SW,215,3.0,14.0,90,0.00,,,0.00,weatherlink.com 1.10,2013-09-22 07:52:00,
2013-09-22 04:07:00,69.7,67.0,29.65,SW,224,5.0,9.0,90,0.00,,,0.00,weatherlink.com 1.10,2013-09-22 08:07:00,
2013-09-22 04:22:00,69.5,67.0,29.64,SE,129,6.0,17.0,91,0.00,,,0.00,weatherlink.com 1.10,2013-09-22 08:22:00,
2013-09-22 04:37:00,69.4,67.0,29.64,WSW,257,1.0,12.0,91,0.00,,,0.00,weatherlink.com 1.10,2013-09-22 08:37:00,
2013-09-22 04:52:00,69.8,67.0,29.65,South,172,0.0,13.0,91,0.00,,,0.00,weatherlink.com 1.10,2013-09-22 08:52:00,
2013-09-22 05:07:00,70.1,67.0,29.64,SW,236,7.0,15.0,90,0.00,,,0.00,weatherlink.com 1.10,2013-09-22 09:07:00,
2013-09-22 05:22:00,69.9,67.0,29.64,SSE,167,2.0,11.0,91,0.00,,,0.00,weatherlink.com 1.10,2013-09-22 09:22:00,
2013-09-22 05:37:00,69.8,67.0,29.64,SSE,165,0.0,12.0,90,0.00,,,0.00,weatherlink.com 1.10,2013-09-22 09:37:00,
2013-09-22 05:52:00,69.8,67.0,29.63,SW,217,7.0,13.0,91,0.00,,,0.00,weatherlink.com 1.10,2013-09-22 09:52:00,
2013-09-22 06:07:00,70.1,67.0,29.64,SW,227,4.0,18.0,91,0.00,,,0.00,weatherlink.com 1.10,2013-09-22 10:07:00,
2013-09-22 06:22:00,70.1,67.0,29.63,SW,229,5.0,18.0,91,0.00,,,0.00,weatherlink.com 1.10,2013-09-22 10:22:00,
2013-09-22 06:37:00,70.1,67.0,29.63,ESE,115,1.0,13.0,91,0.00,,,0.00,weatherlink.com 1.10,2013-09-22 10:37:00,
2013-09-22 06:52:00,69.0,66.0,29.66,WSW,246,0.0,7.0,91,0.34,,,0.34,weatherlink.com 1.10,2013-09-22 10:52:00,
2013-09-22 07:07:00,67.2,66.0,29.66,SSW,212,3.0,4.0,94,0.57,,,0.57,weatherlink.com 1.10,2013-09-22 11:07:00,
2013-09-22 07:22:00,66.6,65.0,29.65,West,262,0.0,4.0,95,0.59,,,0.59,weatherlink.com 1.10,2013-09-22 11:22:00,
2013-09-22 07:37:00,66.3,65.0,29.65,NNW,345,0.0,3.0,95,0.60,,,0.60,weatherlink.com 1.10,2013-09-22 11:37:00,
2013-09-22 07:52:00,66.1,65.0,29.65,WSW,255,0.0,3.0,96,0.26,,,0.62,weatherlink.com 1.10,2013-09-22 11:52:00,
2013-09-22 08:07:00,65.9,65.0,29.66,NW,314,0.0,3.0,96,0.06,,,0.63,weatherlink.com 1.10,2013-09-22 12:07:00,
2013-09-22 08:22:00,65.8,65.0,29.65,SW,235,0.0,1.0,96,0.06,,,0.65,weatherlink.com 1.10,2013-09-22 12:22:00,
2013-09-22 08:37:00,65.7,65.0,29.65,SSE,151,0.0,1.0,96,0.07,,,0.68,weatherlink.com 1.10,2013-09-22 12:37:00,
2013-09-22 08:52:00,65.7,65.0,29.66,SW,219,0.0,3.0,96,0.07,,,0.69,weatherlink.com 1.10,2013-09-22 12:52:00,
2013-09-22 09:07:00,65.6,65.0,29.66,NW,314,0.0,1.0,96,0.07,,,0.70,weatherlink.com 1.10,2013-09-22 13:07:00,
2013-09-22 09:22:00,65.7,65.0,29.65,NW,314,0.0,1.0,97,0.06,,,0.71,weatherlink.com 1.10,2013-09-22 13:22:00,
2013-09-22 09:37:00,65.6,65.0,29.66,NW,313,0.0,2.0,96,0.03,,,0.71,weatherlink.com 1.10,2013-09-22 13:37:00,
2013-09-22 09:52:00,65.6,65.0,29.65,WSW,255,0.0,2.0,97,0.02,,,0.71,weatherlink.com 1.10,2013-09-22 13:52:00,
2013-09-22 10:08:00,64.4,63.0,29.66,NNW,335,0.0,1.0,96,0.01,,,0.71,weatherlink.com 1.10,2013-09-22 14:08:00,
2013-09-22 10:23:00,64.1,63.0,29.66,NNW,335,0.0,1.0,96,0.00,,,0.71,weatherlink.com 1.10,2013-09-22 14:23:00,
2013-09-22 10:38:00,64.3,63.0,29.66,NW,314,0.0,0.0,96,0.00,,,0.71,weatherlink.com 1.10,2013-09-22 14:38:00,
2013-09-22 10:53:00,64.7,64.0,29.67,West,273,0.0,4.0,96,0.00,,,0.71,weatherlink.com 1.10,2013-09-22 14:53:00,
2013-09-22 11:08:00,65.0,63.0,29.66,WSW,241,0.0,4.0,94,0.00,,,0.71,weatherlink.com 1.10,2013-09-22 15:08:00,
2013-09-22 11:23:00,65.6,63.0,29.67,WNW,292,1.0,2.0,91,0.01,,,0.72,weatherlink.com 1.10,2013-09-22 15:23:00,
2013-09-22 11:38:00,66.4,64.0,29.66,SW,224,0.0,3.0,91,0.01,,,0.72,weatherlink.com 1.10,2013-09-22 15:38:00,
2013-09-22 11:53:00,66.7,63.0,29.66,North,360,0.0,4.0,88,0.01,,,0.72,weatherlink.com 1.10,2013-09-22 15:53:00,
2013-09-22 12:08:00,66.8,63.0,29.66,WSW,248,0.0,4.0,87,0.01,,,0.72,weatherlink.com 1.10,2013-09-22 16:08:00,
2013-09-22 12:23:00,66.8,64.0,29.66,NNW,331,0.0,4.0,89,0.00,,,0.72,weatherlink.com 1.10,2013-09-22 16:23:00,
2013-09-22 12:38:00,67.2,62.0,29.66,SW,226,0.0,6.0,84,0.00,,,0.72,weatherlink.com 1.10,2013-09-22 16:38:00,
2013-09-22 12:53:00,67.3,62.0,29.66,WSW,251,0.0,6.0,84,0.00,,,0.72,weatherlink.com 1.10,2013-09-22 16:53:00,
2013-09-22 13:08:00,67.8,62.0,29.65,NNW,342,0.0,6.0,81,0.00,,,0.72,weatherlink.com 1.10,2013-09-22 17:08:00,
2013-09-22 13:23:00,69.7,63.0,29.64,NW,326,1.0,6.0,78,0.00,,,0.72,weatherlink.com 1.10,2013-09-22 17:23:00,
2013-09-22 13:38:00,70.8,63.0,29.64,NNW,328,0.0,5.0,76,0.00,,,0.72,weatherlink.com 1.10,2013-09-22 17:38:00,
2013-09-22 13:53:00,71.4,62.0,29.64,NW,311,0.0,4.0,71,0.00,,,0.72,weatherlink.com 1.10,2013-09-22 17:53:00,
2013-09-22 14:08:00,72.5,62.0,29.64,NNW,334,0.0,3.0,69,0.00,,,0.72,weatherlink.com 1.10,2013-09-22 18:08:00,
2013-09-22 14:23:00,72.5,60.0,29.64,NNW,334,0.0,5.0,66,0.00,,,0.72,weatherlink.com 1.10,2013-09-22 18:23:00,
2013-09-22 14:38:00,73.2,60.0,29.64,North,359,2.0,8.0,63,0.00,,,0.72,weatherlink.com 1.10,2013-09-22 18:38:00,
2013-09-22 14:53:00,72.3,59.0,29.65,West,259,0.0,8.0,64,0.00,,,0.72,weatherlink.com 1.10,2013-09-22 18:53:00,
2013-09-22 15:08:00,70.9,59.0,29.65,WSW,247,1.0,7.0,67,0.00,,,0.72,weatherlink.com 1.10,2013-09-22 19:08:00,
2013-09-22 15:23:00,70.2,60.0,29.65,WSW,252,0.0,3.0,69,0.00,,,0.72,weatherlink.com 1.10,2013-09-22 19:23:00,
2013-09-22 15:38:00,70.9,59.0,29.65,WSW,245,2.0,8.0,67,0.00,,,0.72,weatherlink.com 1.10,2013-09-22 19:38:00,
2013-09-22 15:53:00,70.0,59.0,29.65,ESE,105,0.0,6.0,69,0.00,,,0.72,weatherlink.com 1.10,2013-09-22 19:53:00,
2013-09-22 16:08:00,71.0,59.0,29.65,SSW,196,0.0,4.0,66,0.00,,,0.72,weatherlink.com 1.10,2013-09-22 20:08:00,
2013-09-22 16:23:00,71.2,57.0,29.66,SW,224,3.0,5.0,62,0.00,,,0.72,weatherlink.com 1.10,2013-09-22 20:23:00,
2013-09-22 16:38:00,70.3,57.0,29.66,SW,225,5.0,9.0,63,0.00,,,0.72,weatherlink.com 1.10,2013-09-22 20:38:00,
2013-09-22 16:53:00,70.4,57.0,29.66,WSW,245,1.0,7.0,62,0.00,,,0.72,weatherlink.com 1.10,2013-09-22 20:53:00,
2013-09-22 17:08:00,70.0,57.0,29.66,NW,312,3.0,5.0,63,0.00,,,0.72,weatherlink.com 1.10,2013-09-22 21:08:00,
2013-09-22 17:23:00,69.9,56.0,29.67,SW,219,0.0,7.0,62,0.00,,,0.72,weatherlink.com 1.10,2013-09-22 21:23:00,
2013-09-22 17:38:00,69.4,55.0,29.68,North,352,0.0,5.0,61,0.00,,,0.72,weatherlink.com 1.10,2013-09-22 21:38:00,
2013-09-22 17:53:00,68.6,55.0,29.68,NNW,343,0.0,3.0,63,0.00,,,0.72,weatherlink.com 1.10,2013-09-22 21:53:00,
2013-09-22 18:08:00,66.5,55.0,29.69,WNW,301,0.0,4.0,66,0.00,,,0.72,weatherlink.com 1.10,2013-09-22 22:08:00,
2013-09-22 18:23:00,65.2,53.0,29.69,West,281,0.0,6.0,66,0.00,,,0.72,weatherlink.com 1.10,2013-09-22 22:23:00,
2013-09-22 18:38:00,64.2,54.0,29.69,NW,313,0.0,0.0,69,0.00,,,0.72,weatherlink.com 1.10,2013-09-22 22:38:00,
2013-09-22 18:53:00,62.6,53.0,29.70,NW,313,0.0,0.0,72,0.00,,,0.72,weatherlink.com 1.10,2013-09-22 22:53:00,
2013-09-22 19:08:00,61.0,54.0,29.71,NW,313,0.0,0.0,77,0.00,,,0.72,weatherlink.com 1.10,2013-09-22 23:08:00,
2013-09-22 19:23:00,60.0,53.0,29.71,NW,313,0.0,1.0,78,0.00,,,0.72,weatherlink.com 1.10,2013-09-22 23:23:00,
2013-09-22 19:38:00,59.9,52.0,29.72,NNW,333,0.0,1.0,75,0.00,,,0.72,weatherlink.com 1.10,2013-09-22 23:38:00,
2013-09-22 19:53:00,59.8,52.0,29.73,NW,308,0.0,4.0,75,0.00,,,0.72,weatherlink.com 1.10,2013-09-22 23:53:00,
2013-09-22 20:08:00,59.6,51.0,29.74,NW,326,0.0,5.0,74,0.00,,,0.72,weatherlink.com 1.10,2013-09-23 00:08:00,
2013-09-22 20:23:00,59.6,51.0,29.74,NNW,342,0.0,4.0,73,0.00,,,0.72,weatherlink.com 1.10,2013-09-23 00:23:00,
2013-09-22 20:38:00,59.2,50.0,29.75,NW,322,0.0,6.0,72,0.00,,,0.72,weatherlink.com 1.10,2013-09-23 00:38:00,
2013-09-22 20:53:00,58.9,50.0,29.75,NNW,346,3.0,6.0,72,0.00,,,0.72,weatherlink.com 1.10,2013-09-23 00:53:00,
2013-09-22 21:08:00,58.7,50.0,29.76,NW,316,0.0,3.0,72,0.00,,,0.72,weatherlink.com 1.10,2013-09-23 01:08:00,
2013-09-22 21:23:00,58.3,49.0,29.77,SW,219,1.0,5.0,72,0.00,,,0.72,weatherlink.com 1.10,2013-09-23 01:23:00,
2013-09-22 21:39:00,57.9,49.0,29.77,NNW,331,0.0,5.0,72,0.00,,,0.72,weatherlink.com 1.10,2013-09-23 01:39:00,
2013-09-22 21:54:00,57.5,49.0,29.77,North,354,0.0,3.0,72,0.00,,,0.72,weatherlink.com 1.10,2013-09-23 01:54:00,
2013-09-22 22:09:00,57.1,48.0,29.78,WSW,252,0.0,6.0,72,0.00,,,0.72,weatherlink.com 1.10,2013-09-23 02:09:00,
2013-09-22 22:24:00,56.6,48.0,29.78,WNW,283,0.0,3.0,73,0.00,,,0.72,weatherlink.com 1.10,2013-09-23 02:24:00,
2013-09-22 22:39:00,56.2,48.0,29.79,NW,323,0.0,3.0,74,0.00,,,0.72,weatherlink.com 1.10,2013-09-23 02:39:00,
2013-09-22 22:54:00,55.6,48.0,29.79,NW,316,0.0,1.0,75,0.00,,,0.72,weatherlink.com 1.10,2013-09-23 02:54:00,
2013-09-22 23:09:00,55.1,48.0,29.79,WSW,243,0.0,3.0,76,0.00,,,0.72,weatherlink.com 1.10,2013-09-23 03:09:00,
2013-09-22 23:24:00,54.7,48.0,29.79,NNW,330,1.0,4.0,77,0.00,,,0.72,weatherlink.com 1.10,2013-09-23 03:24:00,
2013-09-22 23:39:00,54.3,48.0,29.80,NNW,328,0.0,2.0,78,0.00,,,0.72,weatherlink.com 1.10,2013-09-23 03:39:00,
2013-09-22 23:54:00,53.9,48.0,29.79,WNW,289,0.0,4.0,79,0.00,,,0.72,weatherlink.com 1.10,2013-09-23 03:54:00,